 day,  time,  air_temp(C),  RH(%),  ground_temp10cm(C),  ground_temp20cm(C),  ground_temp40cm(C),  precipitation(mm/h),  Solar_Radiation(MJ/m2h),  lack, 
 02/01/01, 01:00,  -4.3,  91,   1.1,   1.8,   3.1,   0.0,  0.00, 
 02/01/01, 02:00,  -4.3,  90,   1.1,   1.8,   3.1,   0.0,  0.00, 
 02/01/01, 03:00,  -4.4,  88,   1.1,   1.8,   3.1,   0.0,  0.00, 
 02/01/01, 04:00,  -4.8,  87,   1.1,   1.8,   3.1,   0.0,  0.00, 
 02/01/01, 05:00,  -4.2,  83,   1.1,   1.8,   3.1,   0.0,  0.00, 
 02/01/01, 06:00,  -5.1,  85,   1.1,   1.8,   3.1,   0.0,  0.00, 
 02/01/01, 07:00,  -4.9,  83,   1.1,   1.8,   3.1,   0.0,  0.00, 
 02/01/01, 08:00,  -3.6,  63,   1.1,   1.8,   3.1,   0.0,  0.06, 
 02/01/01, 09:00,  -3.3,  55,   1.1,   1.8,   3.1,   0.0,  0.30, 
 02/01/01, 10:00,  -2.1,  60,   1.1,   1.8,   3.1,   0.0,  0.68, 
 02/01/01, 11:00,  -2.7,  67,   1.1,   1.8,   3.1,   0.0,  0.24, 
 02/01/01, 12:00,  -3.0,  71,   1.1,   1.8,   3.1,   0.0,  0.14, 
 02/01/01, 13:00,  -2.4,  61,   1.1,   1.8,   3.1,   0.0,  0.32, 
 02/01/01, 14:00,  -3.9,  90,   1.1,   1.8,   3.1,   0.0,  0.18, 
 02/01/01, 15:00,  -3.6,  96,   1.1,   1.8,   3.1,   0.5,  0.33, 
 02/01/01, 16:00,  -3.5,  93,   1.1,   1.8,   3.1,   0.5,  0.14, 
 02/01/01, 17:00,  -3.3,  96,   1.1,   1.8,   3.1,   0.0,  0.01, 
 02/01/01, 18:00,  -3.1,  96,   1.1,   1.8,   3.1,   0.0,  0.00, 
 02/01/01, 19:00,  -2.9,  97,   1.1,   1.8,   3.1,   0.0,  0.00, 
 02/01/01, 20:00,  -2.9,  98,   1.1,   1.8,   3.1,   0.0,  0.00, 
 02/01/01, 21:00,  -3.0,  99,   1.1,   1.8,   3.1,   0.5,  0.00, 
 02/01/01, 22:00,  -3.1,  99,   1.1,   1.8,   3.1,   1.0,  0.00, 
 02/01/01, 23:00,  -3.9,  97,   1.1,   1.8,   3.1,   0.5,  0.00, 
 02/01/02, 00:00,  -4.3,  98,   1.1,   1.8,   3.1,   0.0,  0.00, 
 02/01/02, 01:00,  -4.9,  91,   1.1,   1.8,   3.1,   0.0,  0.00, 
 02/01/02, 02:00,  -5.3,  98,   1.1,   1.8,   3.1,   0.0,  0.00, 
 02/01/02, 03:00,  -6.2,  96,   1.1,   1.8,   3.1,   0.5,  0.00, 
 02/01/02, 04:00,  -6.5,  97,   1.1,   1.8,   3.1,   0.0,  0.00, 
 02/01/02, 05:00,  -6.7,  98,   1.1,   1.8,   3.1,   0.0,  0.00, 
 02/01/02, 06:00,  -6.9,  98,   1.1,   1.8,   3.1,   0.0,  0.00, 
 02/01/02, 07:00,  -7.2,  98,   1.1,   1.8,   3.1,   0.0,  0.00, 
 02/01/02, 08:00,  -7.1,  97,   1.1,   1.8,   3.1,   0.0,  0.02, 
 02/01/02, 09:00,  -6.5,  95,   1.1,   1.8,   3.1,   0.0,  0.12, 
 02/01/02, 10:00,  -6.0,  94,   1.1,   1.8,   3.1,   0.5,  0.23, 
 02/01/02, 11:00,  -6.1,  95,   1.1,   1.8,   3.1,   1.0,  0.26, 
 02/01/02, 12:00,  -6.4,  95,   1.1,   1.8,   3.1,   0.5,  0.24, 
 02/01/02, 13:00,  -7.1,  98,   1.1,   1.8,   3.1,   1.0,  0.31, 
 02/01/02, 14:00,  -7.8,  94,   1.1,   1.8,   3.1,   1.0,  0.37, 
 02/01/02, 15:00,  -8.1,  91,   1.1,   1.8,   3.1,   0.0,  0.73, 
 02/01/02, 16:00,  -8.9,  93,   1.1,   1.8,   3.1,   0.5,  0.19, 
 02/01/02, 17:00,  -9.3,  94,   1.1,   1.8,   3.1,   2.5,  0.00, 
 02/01/02, 18:00,  -9.5,  93,   1.1,   1.8,   3.1,   1.5,  0.00, 
 02/01/02, 19:00, -10.1,  92,   1.1,   1.8,   3.1,   2.0,  0.00, 
 02/01/02, 20:00, -10.0,  93,   1.1,   1.8,   3.1,   4.0,  0.00, 
 02/01/02, 21:00, -10.6,  95,   1.1,   1.8,   3.1,   3.5,  0.00, 
 02/01/02, 22:00, -10.9,  96,   1.1,   1.8,   3.1,   2.5,  0.00, 
 02/01/02, 23:00, -11.1,  94,   1.1,   1.8,   3.1,   1.5,  0.00, 
 02/01/03, 00:00, -11.6,  93,   1.1,   1.8,   3.1,   0.5,  0.00, 
 02/01/03, 01:00, -11.7,  92,   1.1,   1.8,   3.1,   0.5,  0.00, 
 02/01/03, 02:00, -11.6,  93,   1.1,   1.8,   3.1,   2.5,  0.00, 
 02/01/03, 03:00, -11.5,  92,   1.1,   1.8,   3.1,   1.5,  0.00, 
 02/01/03, 04:00, -11.1,  93,   1.1,   1.8,   3.1,   2.0,  0.00, 
 02/01/03, 05:00, -10.8,  92,   1.1,   1.8,   3.1,   3.0,  0.00, 
 02/01/03, 06:00, -10.6,  92,   1.1,   1.8,   3.1,   1.5,  0.00, 
 02/01/03, 07:00, -10.4,  93,   1.0,   1.8,   3.1,   1.0,  0.00, 
 02/01/03, 08:00, -10.2,  93,   1.1,   1.8,   3.1,   1.5,  0.01, 
 02/01/03, 09:00,  -9.6,  94,   1.0,   1.8,   3.1,   0.5,  0.20, 
 02/01/03, 10:00,  -9.3,  95,   1.0,   1.8,   3.1,   1.5,  0.20, 
 02/01/03, 11:00,  -8.8,  95,   1.0,   1.8,   3.1,   1.5,  0.33, 
 02/01/03, 12:00,  -8.2,  96,   1.1,   1.8,   3.1,   1.5,  0.46, 
 02/01/03, 13:00,  -8.2,  94,   1.1,   1.8,   3.1,   1.0,  0.78, 
 02/01/03, 14:00,  -8.3,  94,   1.1,   1.8,   3.1,   0.5,  0.38, 
 02/01/03, 15:00,  -8.1,  92,   1.1,   1.8,   3.1,   1.0,  0.34, 
 02/01/03, 16:00,  -8.1,  93,   1.1,   1.8,   3.1,   0.5,  0.12, 
 02/01/03, 17:00,  -8.4,  94,   1.1,   1.8,   3.1,   1.0,  0.00, 
 02/01/03, 18:00,  -8.5,  93,   1.1,   1.8,   3.1,   1.5,  0.00, 
 02/01/03, 19:00,  -8.5,  93,   1.1,   1.8,   3.1,   2.5,  0.00, 
 02/01/03, 20:00,  -8.3,  94,   1.1,   1.8,   3.1,   3.0,  0.00, 
 02/01/03, 21:00,  -8.2,  95,   1.1,   1.8,   3.1,   2.0,  0.00, 
 02/01/03, 22:00,  -8.5,  94,   1.1,   1.8,   3.1,   1.0,  0.00, 
 02/01/03, 23:00,  -8.8,  92,   1.0,   1.8,   3.1,   0.0,  0.00, 
 02/01/04, 00:00,  -8.1,  92,   1.1,   1.8,   3.1,   1.0,  0.00, 
 02/01/04, 01:00,  -8.0,  90,   1.1,   1.8,   3.1,   1.0,  0.00, 
 02/01/04, 02:00,  -7.8,  89,   1.1,   1.8,   3.1,   0.0,  0.00, 
 02/01/04, 03:00,  -8.0,  92,   1.1,   1.8,   3.1,   0.5,  0.00, 
 02/01/04, 04:00,  -8.2,  93,   1.1,   1.8,   3.1,   0.5,  0.00, 
 02/01/04, 05:00,  -7.5,  91,   1.0,   1.8,   3.1,   0.0,  0.00, 
 02/01/04, 06:00,  -7.8,  93,   1.1,   1.8,   3.1,   0.5,  0.00, 
 02/01/04, 07:00,  -7.6,  92,   1.0,   1.8,   3.1,   0.0,  0.00, 
 02/01/04, 08:00,  -6.7,  92,   1.1,   1.8,   3.1,   0.0,  0.00, 
 02/01/04, 09:00,  -5.9,  92,   1.1,   1.8,   3.1,   0.5,  0.09, 
 02/01/04, 10:00,  -5.6,  93,   1.1,   1.8,   3.1,   0.0,  0.19, 
 02/01/04, 11:00,  -4.9,  94,   1.1,   1.8,   3.1,   0.0,  0.42, 
 02/01/04, 12:00,  -4.5,  96,   1.1,   1.8,   3.1,   0.5,  0.64, 
 02/01/04, 13:00,  -4.3,  95,   1.1,   1.8,   3.1,   0.0,  0.48, 
 02/01/04, 14:00,  -4.1,  92,   1.1,   1.8,   3.1,   0.5,  0.41, 
 02/01/04, 15:00,  -4.5,  95,   1.1,   1.8,   3.1,   0.0,  0.21, 
 02/01/04, 16:00,  -4.7,  95,   1.1,   1.8,   3.1,   0.5,  0.06, 
 02/01/04, 17:00,  -4.7,  97,   1.1,   1.8,   3.1,   0.5,  0.00, 
 02/01/04, 18:00,  -4.7,  96,   1.1,   1.8,   3.1,   0.5,  0.00, 
 02/01/04, 19:00,  -4.6,  97,   1.1,   1.8,   3.1,   0.5,  0.00, 
 02/01/04, 20:00,  -4.1,  97,   1.1,   1.8,   3.1,   1.0,  0.00, 
 02/01/04, 21:00,  -3.9,  98,   1.1,   1.8,   3.1,   1.5,  0.00, 
 02/01/04, 22:00,  -3.9,  98,   1.1,   1.8,   3.1,   2.5,  0.00, 
 02/01/04, 23:00,  -3.8,  98,   1.1,   1.8,   3.1,   1.0,  0.00, 
 02/01/05, 00:00,  -3.6,  98,   1.1,   1.8,   3.0,   3.0,  0.00, 
 02/01/05, 01:00,  -3.7,  98,   1.1,   1.8,   3.0,   1.5,  0.00, 
 02/01/05, 02:00,  -3.5,  98,   1.1,   1.8,   3.0,   1.5,  0.00, 
 02/01/05, 03:00,  -3.5,  98,   1.1,   1.8,   3.0,   2.0,  0.00, 
 02/01/05, 04:00,  -3.5,  99,   1.1,   1.8,   3.0,   3.5,  0.00, 
 02/01/05, 05:00,  -3.5,  99,   1.1,   1.8,   3.0,   1.0,  0.00, 
 02/01/05, 06:00,  -3.6,  99,   1.1,   1.8,   3.0,   2.0,  0.00, 
 02/01/05, 07:00,  -4.2,  97,   1.1,   1.8,   3.0,   1.5,  0.00, 
 02/01/05, 08:00,  -4.6,  98,   1.1,   1.8,   3.0,   0.5,  0.00, 
 02/01/05, 09:00,  -4.8,  97,   1.1,   1.8,   3.0,   1.0,  0.15, 
 02/01/05, 10:00,  -5.3,  96,   1.1,   1.8,   3.0,   1.0,  0.19, 
 02/01/05, 11:00,  -5.7,  96,   1.1,   1.8,   3.0,   2.0,  0.43, 
 02/01/05, 12:00,  -5.2,  98,   1.1,   1.8,   3.0,   1.5,  0.75, 
 02/01/05, 13:00,  -5.9,  96,   1.1,   1.8,   3.0,   0.5,  0.54, 
 02/01/05, 14:00,  -5.6,  94,   1.1,   1.8,   3.0,   1.5,  0.55, 
 02/01/05, 15:00,  -6.0,  95,   1.1,   1.8,   3.0,   1.0,  0.84, 
 02/01/05, 16:00,  -6.8,  92,   1.1,   1.8,   3.0,   1.5,  0.13, 
 02/01/05, 17:00,  -7.1,  96,   1.1,   1.8,   3.0,   3.0,  0.00, 
 02/01/05, 18:00,  -7.2,  98,   1.1,   1.8,   3.0,   2.0,  0.00, 
 02/01/05, 19:00,  -7.9,  96,   1.1,   1.8,   3.0,   1.5,  0.00, 
 02/01/05, 20:00,  -8.0,  96,   1.1,   1.8,   3.0,   1.5,  0.00, 
 02/01/05, 21:00,  -8.2,  96,   1.1,   1.8,   3.0,   3.0,  0.00, 
 02/01/05, 22:00,  -8.3,  96,   1.1,   1.8,   3.0,   1.0,  0.00, 
 02/01/05, 23:00,  -8.5,  94,   1.1,   1.8,   3.0,   1.5,  0.00, 
 02/01/06, 00:00,  -9.0,  94,   1.1,   1.8,   3.0,   0.5,  0.00, 
 02/01/06, 01:00,  -9.1,  93,   1.1,   1.8,   3.0,   0.0,  0.00, 
 02/01/06, 02:00,  -8.9,  90,   1.1,   1.8,   3.0,   0.5,  0.00, 
 02/01/06, 03:00,  -8.8,  91,   1.1,   1.8,   3.0,   1.0,  0.00, 
 02/01/06, 04:00,  -8.8,  93,   1.1,   1.8,   3.0,   0.0,  0.00, 
 02/01/06, 05:00,  -8.8,  90,   1.1,   1.8,   3.0,   0.5,  0.00, 
 02/01/06, 06:00,  -8.8,  92,   1.1,   1.8,   3.0,   0.0,  0.00, 
 02/01/06, 07:00,  -8.7,  90,   1.1,   1.8,   3.0,   0.0,  0.00, 
 02/01/06, 08:00,  -8.6,  90,   1.1,   1.8,   3.0,   0.5,  0.04, 
 02/01/06, 09:00,  -7.8,  94,   1.1,   1.8,   3.0,   0.0,  0.38, 
 02/01/06, 10:00,  -7.1,  89,   1.1,   1.8,   3.0,   0.0,  0.91, 
 02/01/06, 11:00,  -7.1,  82,   1.1,   1.8,   3.0,   0.0,  1.12, 
 02/01/06, 12:00,  -6.7,  86,   1.1,   1.8,   3.0,   0.5,  0.85, 
 02/01/06, 13:00,  -6.4,  89,   1.1,   1.8,   3.0,   0.0,  1.00, 
 02/01/06, 14:00,  -5.9,  84,   1.1,   1.8,   3.0,   0.0,  0.97, 
 02/01/06, 15:00,  -6.4,  88,   1.1,   1.8,   3.0,   0.0,  0.86, 
 02/01/06, 16:00,  -6.7,  84,   1.1,   1.8,   3.0,   0.0,  0.44, 
 02/01/06, 17:00,  -7.7,  86,   1.1,   1.8,   3.0,   0.0,  0.06, 
 02/01/06, 18:00,  -7.9,  87,   1.1,   1.8,   3.0,   0.0,  0.00, 
 02/01/06, 19:00,  -8.9,  91,   1.1,   1.8,   3.0,   0.0,  0.00, 
 02/01/06, 20:00,  -8.8,  84,   1.1,   1.8,   3.0,   0.0,  0.00, 
 02/01/06, 21:00, -10.7,  91,   1.1,   1.8,   3.0,   0.0,  0.00, 
 02/01/06, 22:00,  -9.4,  89,   1.0,   1.7,   3.0,   0.0,  0.00, 
 02/01/06, 23:00,  -9.1,  79,   1.1,   1.8,   3.0,   0.0,  0.00, 
 02/01/07, 00:00,  -8.1,  73,   1.1,   1.8,   3.0,   0.0,  0.00, 
 02/01/07, 01:00, -10.6,  81,   1.1,   1.7,   3.0,   0.0,  0.00, 
 02/01/07, 02:00, -11.8,  85,   1.0,   1.7,   3.0,   0.0,  0.00, 
 02/01/07, 03:00, -11.8,  85,   1.0,   1.7,   3.0,   0.0,  0.00, 
 02/01/07, 04:00, -10.8,  80,   1.1,   1.7,   3.0,   0.0,  0.00, 
 02/01/07, 05:00, -10.0,  78,   1.0,   1.8,   3.0,   0.0,  0.00, 
 02/01/07, 06:00,  -9.5,  75,   1.0,   1.6,   3.0,   0.0,  0.00, 
 02/01/07, 07:00,  -8.0,  72,   1.0,   1.7,   3.0,   0.0,  0.00, 
 02/01/07, 08:00,  -5.7,  68,   1.1,   1.8,   3.0,   0.0,  0.10, 
 02/01/07, 09:00,  -3.7,  69,   1.1,   1.7,   3.0,   0.0,  0.73, 
 02/01/07, 10:00,  -3.3,  70,   1.0,   1.7,   3.0,   0.0,  0.92, 
 02/01/07, 11:00,  -2.9,  76,   1.1,   1.7,   3.0,   0.0,  1.19, 
 02/01/07, 12:00,  -1.5,  68,   1.1,   1.7,   3.1,   0.5,  1.32, 
 02/01/07, 13:00,  -0.8,  72,   1.2,   1.7,   3.1,   0.0,  1.16, 
 02/01/07, 14:00,  -0.5,  82,   1.2,   1.7,   3.1,   0.0,  0.49, 
 02/01/07, 15:00,  -0.1,  84,   1.2,   1.7,   3.1,   0.0,  0.48, 
 02/01/07, 16:00,   0.6,  73,   1.2,   1.7,   3.1,   0.0,  0.43, 
 02/01/07, 17:00,  -0.8,  86,   1.2,   1.7,   3.1,   0.0,  0.09, 
 02/01/07, 18:00,  -0.1,  88,   1.2,   1.7,   3.1,   0.0,  0.00, 
 02/01/07, 19:00,   1.0,  85,   1.1,   1.7,   3.0,   0.5,  0.00, 
 02/01/07, 20:00,   1.1,  88,   1.1,   1.7,   3.0,   0.0,  0.00, 
 02/01/07, 21:00,   1.0,  96,   1.1,   1.7,   3.0,   0.0,  0.00, 
 02/01/07, 22:00,   0.9,  99,   1.1,   1.7,   3.0,   0.5,  0.00, 
 02/01/07, 23:00,   1.3,  99,   1.1,   1.7,   3.0,   0.5,  0.00, 
 02/01/08, 00:00,   1.9,  96,   1.1,   1.7,   3.0,   0.0,  0.00, 
 02/01/08, 01:00,  -0.2,  99,   1.1,   1.7,   3.0,   2.5,  0.00, 
 02/01/08, 02:00,  -0.8,  99,   1.1,   1.7,   3.0,   1.0,  0.00, 
 02/01/08, 03:00,  -1.2,  99,   1.1,   1.7,   3.0,   0.5,  0.00, 
 02/01/08, 04:00,  -1.8,  99,   1.0,   1.7,   3.0,   0.0,  0.00, 
 02/01/08, 05:00,  -2.9,  98,   1.1,   1.7,   3.0,   0.5,  0.00, 
 02/01/08, 06:00,  -3.8,  97,   1.1,   1.7,   3.0,   0.0,  0.00, 
 02/01/08, 07:00,  -4.3,  98,   1.0,   1.7,   3.0,   0.5,  0.00, 
 02/01/08, 08:00,  -5.1,  98,   1.0,   1.7,   3.0,   0.5,  0.00, 
 02/01/08, 09:00,  -6.1,  96,   1.0,   1.7,   3.0,   1.5,  0.05, 
 02/01/08, 10:00,  -5.0,  89,   1.0,   1.7,   3.0,   0.0,  0.70, 
 02/01/08, 11:00,  -5.9,  95,   1.2,   1.7,   3.1,   0.0,  0.41, 
 02/01/08, 12:00,  -5.5,  92,   1.2,   1.7,   3.1,   1.0,  0.42, 
 02/01/08, 13:00,  -6.0,  94,   1.2,   1.7,   3.1,   0.5,  0.35, 
 02/01/08, 14:00,  -6.0,  93,   1.2,   1.7,   3.1,   0.0,  0.33, 
 02/01/08, 15:00,  -6.4,  90,   1.2,   1.8,   3.1,   0.5,  0.28, 
 02/01/08, 16:00,  -7.3,  95,   1.2,   1.8,   3.1,   0.5,  0.09, 
 02/01/08, 17:00,  -8.1,  94,   1.2,   1.7,   3.1,   0.5,  0.01, 
 02/01/08, 18:00,  -8.5,  93,   1.2,   1.7,   3.1,   0.0,  0.00, 
 02/01/08, 19:00,  -8.4,  94,   1.2,   1.7,   3.1,   0.5,  0.00, 
 02/01/08, 20:00,  -8.4,  95,   1.2,   1.7,   3.1,   0.5,  0.00, 
 02/01/08, 21:00,  -8.4,  94,   1.2,   1.7,   3.1,   1.0,  0.00, 
 02/01/08, 22:00,  -8.4,  94,   1.1,   1.7,   3.0,   0.5,  0.00, 
 02/01/08, 23:00,  -8.2,  94,   1.1,   1.7,   3.0,   1.0,  0.00, 
 02/01/09, 00:00,  -7.9,  95,   1.0,   1.7,   3.0,   1.5,  0.00, 
 02/01/09, 01:00,  -7.9,  95,   1.0,   1.7,   3.0,   1.5,  0.00, 
 02/01/09, 02:00,  -7.7,  94,   1.0,   1.7,   3.0,   2.0,  0.00, 
 02/01/09, 03:00,  -7.2,  97,   1.0,   1.7,   3.0,   1.0,  0.00, 
 02/01/09, 04:00,  -7.1,  95,   1.0,   1.7,   3.0,   1.5,  0.00, 
 02/01/09, 05:00,  -7.0,  97,   1.0,   1.7,   3.0,   1.0,  0.00, 
 02/01/09, 06:00,  -7.0,  96,   1.0,   1.7,   3.0,   1.5,  0.00, 
 02/01/09, 07:00,  -6.9,  96,   1.0,   1.7,   3.0,   1.0,  0.00, 
 02/01/09, 08:00,  -6.7,  97,   1.0,   1.7,   3.0,   2.0,  0.00, 
 02/01/09, 09:00,  -6.4,  98,   1.0,   1.7,   3.0,   1.5,  0.05, 
 02/01/09, 10:00,  -6.0,  95,   1.0,   1.7,   3.0,   1.0,  0.25, 
 02/01/09, 11:00,  -6.4,  95,   1.0,   1.7,   3.0,   1.0,  0.38, 
 02/01/09, 12:00,  -6.1,  99,   1.0,   1.7,   3.0,   0.0,  0.49, 
 02/01/09, 13:00,  -5.8,  99,   1.0,   1.7,   3.0,   0.5,  0.46, 
 02/01/09, 14:00,  -5.3,  99,   1.0,   1.7,   3.0,   0.5,  0.38, 
 02/01/09, 15:00,  -4.9,  99,   1.0,   1.7,   3.0,   1.0,  0.50, 
 02/01/09, 16:00,  -5.3,  96,   1.0,   1.7,   3.0,   0.0,  0.20, 
 02/01/09, 17:00,  -5.6,  93,   1.1,   1.7,   3.1,   0.5,  0.06, 
 02/01/09, 18:00,  -5.4,  93,   1.1,   1.7,   3.0,   0.0,  0.00, 
 02/01/09, 19:00,  -5.1,  94,   1.0,   1.7,   3.0,   0.5,  0.00, 
 02/01/09, 20:00,  -5.1,  95,   1.0,   1.7,   3.0,   0.0,  0.00, 
 02/01/09, 21:00,  -5.1,  95,   1.0,   1.7,   3.0,   0.5,  0.00, 
 02/01/09, 22:00,  -5.3,  96,   1.0,   1.7,   3.0,   0.0,  0.00, 
 02/01/09, 23:00,  -4.9,  92,   1.0,   1.7,   3.0,   0.0,  0.00, 
 02/01/10, 00:00,  -5.1,  86,   1.0,   1.7,   2.9,   0.0,  0.00, 
 02/01/10, 01:00,  -4.8,  85,   1.0,   1.7,   2.9,   0.0,  0.00, 
 02/01/10, 02:00,  -4.9,  87,   1.0,   1.7,   2.9,   0.0,  0.00, 
 02/01/10, 03:00,  -4.9,  88,   1.0,   1.7,   2.9,   0.0,  0.00, 
 02/01/10, 04:00,  -5.6,  96,   1.0,   1.7,   2.9,   0.0,  0.00, 
 02/01/10, 05:00,  -4.8,  93,   1.0,   1.7,   2.9,   0.0,  0.00, 
 02/01/10, 06:00,  -5.1,  95,   1.0,   1.7,   2.9,   0.0,  0.00, 
 02/01/10, 07:00,  -4.9,  95,   1.0,   1.7,   2.9,   0.0,  0.00, 
 02/01/10, 08:00,  -4.6,  96,   1.0,   1.7,   2.9,   0.0,  0.00, 
 02/01/10, 09:00,  -3.9,  98,   1.0,   1.7,   2.9,   0.5,  0.06, 
 02/01/10, 10:00,  -3.5,  97,   1.0,   1.7,   2.9,   0.0,  0.22, 
 02/01/10, 11:00,  -2.8,  98,   1.0,   1.7,   2.9,   0.5,  0.50, 
 02/01/10, 12:00,  -2.9,  99,   1.1,   1.7,   3.0,   0.0,  0.43, 
 02/01/10, 13:00,  -2.5,  98,   1.1,   1.7,   3.0,   0.0,  0.47, 
 02/01/10, 14:00,  -2.5,  98,   1.1,   1.7,   3.0,   0.0,  0.45, 
 02/01/10, 15:00,  -2.7,  95,   1.1,   1.8,   3.0,   0.0,  0.26, 
 02/01/10, 16:00,  -2.3,  96,   1.1,   1.8,   3.0,   0.0,  0.36, 
 02/01/10, 17:00,  -3.0,  96,   1.1,   1.8,   3.0,   0.0,  0.10, 
 02/01/10, 18:00,  -3.0,  94,   1.1,   1.8,   3.0,   0.0,  0.00, 
 02/01/10, 19:00,  -2.8,  95,   1.1,   1.7,   3.0,   0.0,  0.00, 
 02/01/10, 20:00,  -2.9,  98,   1.1,   1.7,   3.0,   0.0,  0.00, 
 02/01/10, 21:00,  -2.7,  97,   1.1,   1.7,   3.0,   0.5,  0.00, 
 02/01/10, 22:00,  -2.5,  98,   1.0,   1.7,   2.9,   0.0,  0.00, 
 02/01/10, 23:00,  -2.7,  99,   1.1,   1.7,   2.9,   0.0,  0.00, 
 02/01/11, 00:00,  -2.9,  98,   1.0,   1.7,   2.9,   0.5,  0.00, 
 02/01/11, 01:00,  -2.4,  99,   1.0,   1.7,   2.9,   0.0,  0.00, 
 02/01/11, 02:00,  -2.2,  99,   1.0,   1.7,   2.9,   0.0,  0.00, 
 02/01/11, 03:00,  -2.0,  99,   1.0,   1.7,   2.9,   0.5,  0.00, 
 02/01/11, 04:00,  -1.7,  99,   1.0,   1.7,   2.9,   0.0,  0.00, 
 02/01/11, 05:00,  -1.3,  99,   1.0,   1.7,   2.9,   1.5,  0.00, 
 02/01/11, 06:00,  -1.3,  99,   1.0,   1.7,   2.9,   0.0,  0.00, 
 02/01/11, 07:00,  -1.3,  99,   1.0,   1.7,   2.9,   0.5,  0.00, 
 02/01/11, 08:00,  -1.3,  99,   1.0,   1.7,   2.9,   0.0,  0.00, 
 02/01/11, 09:00,  -1.4,  99,   1.0,   1.7,   2.9,   0.0,  0.00, 
 02/01/11, 10:00,  -1.0,  99,   1.1,   1.7,   2.9,   2.0,  0.14, 
 02/01/11, 11:00,  -1.0,  99,   1.1,   1.7,   2.9,   2.5,  0.05, 
 02/01/11, 12:00,  -1.2,  99,   1.1,   1.8,   3.0,   3.5,  0.08, 
 02/01/11, 13:00,  -1.3,  99,   1.1,   1.8,   3.0,   1.5,  0.21, 
 02/01/11, 14:00,  -1.4,  98,   1.1,   1.7,   3.0,   1.0,  0.21, 
 02/01/11, 15:00,  -1.7,  99,   1.1,   1.7,   3.0,   0.5,  0.16, 
 02/01/11, 16:00,  -1.7,  97,   1.1,   1.7,   3.0,   1.0,  0.01, 
 02/01/11, 17:00,  -1.7,  95,   1.1,   1.7,   3.0,   0.0,  0.05, 
 02/01/11, 18:00,  -2.1,  99,   1.1,   1.7,   3.0,   0.0,  0.00, 
 02/01/11, 19:00,  -2.2,  95,   1.0,   1.7,   2.9,   0.0,  0.00, 
 02/01/11, 20:00,  -2.1,  98,   1.0,   1.7,   2.9,   0.5,  0.00, 
 02/01/11, 21:00,  -2.1,  94,   1.1,   1.7,   3.0,   0.0,  0.00, 
 02/01/11, 22:00,  -2.8,  93,   1.0,   1.7,   2.9,   0.0,  0.00, 
 02/01/11, 23:00,  -3.3,  86,   1.0,   1.7,   2.9,   0.0,  0.00, 
 02/01/12, 00:00,  -3.7,  79,   1.0,   1.7,   2.9,   0.0,  0.00, 
 02/01/12, 01:00,  -3.1,  60,   1.0,   1.7,   2.9,   0.0,  0.00, 
 02/01/12, 02:00,  -3.2,  56,   1.0,   1.7,   2.9,   0.0,  0.00, 
 02/01/12, 03:00,  -3.4,  54,   1.0,   1.7,   2.9,   0.0,  0.00, 
 02/01/12, 04:00,  -2.9,  54,   1.0,   1.7,   2.9,   0.0,  0.00, 
 02/01/12, 05:00,  -2.8,  68,   1.0,   1.7,   2.9,   0.0,  0.00, 
 02/01/12, 06:00,  -2.3,  78,   1.0,   1.7,   2.9,   0.0,  0.00, 
 02/01/12, 07:00,  -2.7,  81,   1.0,   1.7,   2.9,   0.5,  0.00, 
 02/01/12, 08:00,  -1.8,  76,   1.0,   1.7,   2.9,   0.0,  0.05, 
 02/01/12, 09:00,   0.3,  80,   1.0,   1.7,   2.9,   0.0,  0.43, 
 02/01/12, 10:00,   0.3,  76,   1.0,   1.7,   2.9,   0.0,  0.41, 
 02/01/12, 11:00,   1.4,  77,   1.0,   1.7,   2.9,   0.0,  0.73, 
 02/01/12, 12:00,   1.9,  85,   1.1,   1.7,   3.0,   0.0,  1.64, 
 02/01/12, 13:00,   1.6,  85,   1.1,   1.7,   3.0,   0.0,  1.54, 
 02/01/12, 14:00,   1.0,  86,   1.0,   1.7,   2.9,   0.0,  0.51, 
 02/01/12, 15:00,   0.6,  88,   1.0,   1.7,   2.9,   0.0,  0.20, 
 02/01/12, 16:00,   0.4,  92,   1.0,   1.7,   2.9,   0.0,  0.09, 
 02/01/12, 17:00,   0.3,  94,   1.0,   1.7,   2.9,   0.0,  0.00, 
 02/01/12, 18:00,   0.2,  92,   1.0,   1.7,   2.9,   0.0,  0.00, 
 02/01/12, 19:00,  -0.3,  89,   1.0,   1.7,   2.9,   0.0,  0.00, 
 02/01/12, 20:00,  -0.9,  93,   1.0,   1.7,   2.9,   0.0,  0.00, 
 02/01/12, 21:00,  -1.4,  94,   1.0,   1.7,   2.9,   0.0,  0.00, 
 02/01/12, 22:00,  -1.1,  91,   1.0,   1.7,   2.9,   0.0,  0.00, 
 02/01/12, 23:00,  -1.3,  90,   1.0,   1.7,   2.9,   0.0,  0.00, 
 02/01/13, 00:00,  -1.9,  92,   1.0,   1.7,   2.9,   0.0,  0.00, 
 02/01/13, 01:00,  -2.8,  93,   1.0,   1.7,   2.9,   0.0,  0.00, 
 02/01/13, 02:00,  -1.0,  80,   1.0,   1.7,   2.9,   0.0,  0.00, 
 02/01/13, 03:00,  -1.6,  74,   1.0,   1.7,   2.9,   0.0,  0.00, 
 02/01/13, 04:00,   0.5,  57,   1.0,   1.7,   2.9,   0.0,  0.00, 
 02/01/13, 05:00,  -2.9,  80,   1.0,   1.7,   2.9,   0.0,  0.00, 
 02/01/13, 06:00,  -3.2,  88,   1.0,   1.7,   2.9,   0.0,  0.00, 
 02/01/13, 07:00,  -2.8,  88,   1.0,   1.7,   2.9,   0.0,  0.00, 
 02/01/13, 08:00,  -2.4,  91,   1.0,   1.7,   2.9,   0.0,  0.07, 
 02/01/13, 09:00,  -0.5,  84,   1.0,   1.7,   2.9,   0.0,  0.80, 
 02/01/13, 10:00,  -0.5,  81,   1.0,   1.7,   2.9,   0.0,  0.96, 
 02/01/13, 11:00,   1.0,  78,   1.1,   1.7,   2.9,   0.0,  1.14, 
 02/01/13, 12:00,   0.7,  84,   1.1,   1.7,   3.0,   0.0,  1.10, 
 02/01/13, 13:00,   0.6,  83,   1.1,   1.7,   2.9,   0.0,  0.89, 
 02/01/13, 14:00,   0.0,  85,   1.1,   1.7,   3.0,   0.0,  0.59, 
 02/01/13, 15:00,   1.3,  79,   1.1,   1.7,   2.9,   0.0,  1.14, 
 02/01/13, 16:00,   0.6,  76,   1.1,   1.7,   2.9,   0.0,  0.65, 
 02/01/13, 17:00,  -0.5,  79,   1.1,   1.7,   3.0,   0.0,  0.10, 
 02/01/13, 18:00,  -1.7,  89,   1.1,   1.7,   3.0,   0.0,  0.00, 
 02/01/13, 19:00,  -1.6,  87,   1.1,   1.7,   3.0,   0.0,  0.00, 
 02/01/13, 20:00,  -1.1,  71,   1.1,   1.7,   3.0,   0.0,  0.00, 
 02/01/13, 21:00,  -2.8,  87,   1.0,   1.7,   2.9,   0.0,  0.00, 
 02/01/13, 22:00,  -2.8,  90,   1.1,   1.7,   3.0,   0.0,  0.00, 
 02/01/13, 23:00,  -3.9,  95,   1.0,   1.7,   2.9,   0.0,  0.00, 
 02/01/14, 00:00,  -4.3,  93,   1.0,   1.7,   2.9,   0.0,  0.00, 
 02/01/14, 01:00,  -4.0,  87,   1.1,   1.7,   3.0,   0.0,  0.00, 
 02/01/14, 02:00,  -4.4,  84,   1.0,   1.7,   2.9,   0.0,  0.00, 
 02/01/14, 03:00,  -3.1,  66,   1.0,   1.7,   2.9,   0.0,  0.00, 
 02/01/14, 04:00,  -5.4,  77,   1.0,   1.7,   2.9,   0.0,  0.00, 
 02/01/14, 05:00,  -5.8,  80,   1.0,   1.7,   2.9,   0.0,  0.00, 
 02/01/14, 06:00,  -7.1,  98,   1.0,   1.7,   2.9,   0.0,  0.00, 
 02/01/14, 07:00,  -5.5,  87,   1.1,   1.7,   3.0,   0.0,  0.00, 
 02/01/14, 08:00,  -3.2,  75,   1.0,   1.7,   2.9,   0.0,  0.13, 
 02/01/14, 09:00,  -0.5,  67,   1.1,   1.7,   3.0,   0.0,  0.76, 
 02/01/14, 10:00,   4.2,  49,   1.1,   1.7,   2.9,   0.0,  1.52, 
 02/01/14, 11:00,   5.0,  36,   1.1,   1.8,   3.0,   0.0,  1.59, 
 02/01/14, 12:00,   4.9,  36,   1.1,   1.8,   3.0,   0.0,  1.29, 
 02/01/14, 13:00,   5.9,  35,   1.1,   1.8,   3.0,   0.0,  1.71, 
 02/01/14, 14:00,   6.4,  37,   1.1,   1.8,   3.0,   0.0,  1.62, 
 02/01/14, 15:00,   4.0,  52,   1.1,   1.8,   3.0,   0.0,  1.03, 
 02/01/14, 16:00,   4.3,  35,   1.1,   1.8,   3.0,   0.0,  0.58, 
 02/01/14, 17:00,   1.3,  66,   1.1,   1.7,   3.0,   0.0,  0.10, 
 02/01/14, 18:00,   0.8,  68,   1.1,   1.7,   3.0,   0.0,  0.00, 
 02/01/14, 19:00,   0.0,  59,   1.1,   1.7,   3.0,   0.0,  0.00, 
 02/01/14, 20:00,   1.2,  50,   1.1,   1.7,   2.9,   0.0,  0.00, 
 02/01/14, 21:00,  -0.3,  66,   1.1,   1.7,   2.9,   0.0,  0.00, 
 02/01/14, 22:00,   0.0,  72,   1.1,   1.7,   3.0,   0.0,  0.00, 
 02/01/14, 23:00,   0.8,  72,   1.1,   1.7,   3.0,   0.0,  0.00, 
 02/01/15, 00:00,   2.1,  74,   1.0,   1.7,   2.9,   0.0,  0.00, 
 02/01/15, 01:00,   1.2,  83,   1.1,   1.7,   3.0,   0.0,  0.00, 
 02/01/15, 02:00,   1.8,  87,   1.1,   1.7,   2.9,   0.0,  0.00, 
 02/01/15, 03:00,   1.6,  87,   1.0,   1.7,   2.9,   0.0,  0.00, 
 02/01/15, 04:00,   1.6,  96,   1.0,   1.7,   2.8,   0.0,  0.00, 
 02/01/15, 05:00,   3.4,  90,   1.1,   1.7,   2.9,   0.0,  0.00, 
 02/01/15, 06:00,   3.8,  92,   1.0,   1.7,   2.8,   0.0,  0.00, 
 02/01/15, 07:00,   4.0,  92,   1.0,   1.7,   2.8,   0.0,  0.00, 
 02/01/15, 08:00,   4.0,  99,   1.0,   1.7,   2.8,   0.0,  0.00, 
 02/01/15, 09:00,   4.7,  99,   1.0,   1.7,   2.8,   0.0,  0.22, 
 02/01/15, 10:00,   5.7,  96,   1.0,   1.7,   2.8,   0.0,  0.36, 
 02/01/15, 11:00,   5.3,  95,   1.1,   1.8,   2.9,   0.0,  0.35, 
 02/01/15, 12:00,   5.2,  99,   1.1,   1.8,   2.9,   0.0,  0.14, 
 02/01/15, 13:00,   4.7,  99,   1.1,   1.8,   2.9,   1.5,  0.16, 
 02/01/15, 14:00,   4.8,  99,   1.1,   1.8,   2.9,   1.0,  0.13, 
 02/01/15, 15:00,   5.2,  99,   1.1,   1.8,   2.9,   2.0,  0.12, 
 02/01/15, 16:00,   4.6,  99,   1.1,   1.8,   2.9,   0.5,  0.02, 
 02/01/15, 17:00,   5.1,  99,   1.1,   1.8,   2.9,   0.0,  0.01, 
 02/01/15, 18:00,   5.6,  94,   1.1,   1.8,   2.9,   0.0,  0.00, 
 02/01/15, 19:00,   5.0,  99,   1.1,   1.8,   2.9,   0.0,  0.00, 
 02/01/15, 20:00,   4.5,  99,   1.1,   1.8,   2.9,   0.0,  0.00, 
 02/01/15, 21:00,   5.5,  97,   1.1,   1.8,   2.9,   0.0,  0.00, 
 02/01/15, 22:00,   4.7,  99,   1.1,   1.8,   2.9,   0.0,  0.00, 
 02/01/15, 23:00,   4.4,  99,   1.1,   1.8,   2.9,   0.0,  0.00, 
 02/01/16, 00:00,   5.2,  99,   1.1,   1.7,   2.9,   0.0,  0.00, 
 02/01/16, 01:00,   5.0,  99,   1.1,   1.6,   2.9,   0.0,  0.00, 